Home   Weather   Coesfeld   Past weeks

Flag for Germany Past Weather in Coesfeld, North Rhine-Westphalia, Germany — Yesterday and Last 2 Weeks

Now
54 °F

Cool.


Feels Like: 54 °F
Forecast: 49 / 66 °F
Wind: No wind

Location: Rheine-Bentlage

Current Time: Sep 23, 2017 at 9:47:27 pm

Latest Report: Sep 23, 2017 at 8:20 pm


Visibility: N/A

Pressure: 30.21 "Hg

Humidity: 88%

Dew Point: 50 °F

Location of CoesfeldLocation

Past Weather in Coesfeld — Graph

°F

Coesfeld Temperature Yesterday

Maximum temperature yesterday: 64 °F (at 1:20 pm)
Minimum temperature yesterday: 48 °F (at 1:20 am)
Average temperature yesterday: 56 °F

High & Low Weather Summary for the Past Weeks

 TemperatureHumidityPressure
High66 °F (Sep 21, 2:20 pm)100% (Sep 9, 10:20 pm)30.27 "Hg (Sep 9, 10:20 pm)
Low41 °F (Sep 17, 5:20 am)49% (Sep 13, 5:20 pm)29.30 "Hg (Sep 13, 9:20 am)
Average55 °F82%29.80 "Hg
* Reported Sep 8 8:20 pm — Sep 23 8:20 pm, Coesfeld. Weather by CustomWeather, © 2017

Note: Actual official high and low records may vary slightly from our data, if they occured in-between our weather recording intervals... More about our weather records

Advertising

Coesfeld Weather History for the Previous 24 Hours

Scroll right to see more
 ConditionsComfort  
Time TempWeatherWind HumidityBarometerVisibility
8:20 pm
Sat, Sep 23
54 °FCool.No wind88%30.21 "HgN/A
7:20 pm57 °FCool.1 mph82%30.21 "HgN/A
6:20 pm63 °FMild.2 mph68%30.21 "HgN/A
5:20 pm64 °FMild.2 mph60%30.21 "HgN/A
4:20 pm63 °FMild.5 mph64%30.21 "HgN/A
3:20 pm63 °FMild.5 mph64%30.24 "HgN/A
2:20 pm61 °FCool.5 mph68%30.24 "HgN/A
1:20 pm61 °FCool.2 mph68%30.24 "HgN/A
12:20 pm61 °FCool.3 mph72%30.27 "HgN/A
11:20 am57 °FCool.3 mph77%30.27 "HgN/A
10:20 am57 °FCool.6 mph77%30.27 "HgN/A
9:20 am54 °FCool.8 mph88%30.24 "HgN/A
8:20 am52 °FCool.3 mph94%30.24 "HgN/A
7:20 am54 °FCool.5 mph94%30.21 "HgN/A
6:20 am54 °FCool.6 mph94%30.21 "HgN/A
5:20 am54 °FCool.6 mph94%30.21 "HgN/A
4:20 am54 °FCool.3 mph100%30.21 "HgN/A
3:20 am50 °FCool.3 mph94%30.21 "HgN/A
2:20 am54 °FCool.2 mph94%30.21 "HgN/A
1:20 am55 °FCool.2 mph94%30.21 "HgN/A
12:20 am57 °FCool.3 mph88%30.18 "HgN/A
11:20 pm
Fri, Sep 22
59 °FCool.7 mph82%30.18 "HgN/A
10:20 pm57 °FCool.3 mph88%30.18 "HgN/A
9:20 pm59 °FCool.1 mph88%30.15 "HgN/A
Weather by CustomWeather, © 2017

See weather overviewHow to use our weather pages